GFSFLT1_925_rhum_219.txt.gz
RH
23 26 35 63 92 99 93 99 97 95 100 100 100 100 100 100 99 100 99 100 100 100 100 100 100 100 98 82 85 90 98 100
23 26 27 30 43 81 90 92 100 100 99 100 100 100 100 100 99 100 100 98 100 100 100 100 100 100 92 82 93 99 100 95
32 35 38 38 32 33 77 80 49 73 90 100 100 100 100 100 100 100 99 100 100 100 99 100 100 100 100 100 100 100 96 89
34 36 38 39 43 37 38 59 96 76 45 50 61 65 86 95 100 99 100 100 100 100 100 100 100 100 99 98 99 94 94 100
36 33 35 42 44 33 39 39 38 66 77 69 42 42 57 54 62 80 99 98 100 100 100 100 99 100 100 99 99 96 95 98
36 35 33 33 42 46 42 31 37 43 41 63 85 68 69 74 80 82 70 87 97 99 100 100 100 100 100 99 100 100 100 97
32 33 35 34 37 43 42 46 47 40 37 49 50 76 69 73 70 66 64 72 91 97 99 100 100 100 98 99 100 100 98 96
36 36 38 41 45 49 52 51 50 57 62 48 59 57 64 83 83 73 86 87 73 74 98 100 99 100 99 100 100 100 100 100
39 41 46 48 52 60 63 63 64 67 70 67 66 64 62 63 80 91 93 94 96 92 82 82 95 96 100 100 100 100 100 100
46 49 54 58 59 62 70 73 73 76 78 74 75 69 71 76 71 72 86 86 93 92 77 98 99 62 88 100 100 100 100 100
48 50 56 56 56 66 76 78 77 82 85 83 83 80 78 78 83 93 97 98 93 97 100 100 100 99 87 95 99 100 100 100
56 57 56 60 64 70 76 80 79 85 92 81 71 70 75 75 85 98 98 99 100 99 99 99 98 100 100 98 99 98 98 100
56 54 63 67 68 71 81 84 83 89 94 88 89 81 72 82 88 95 100 100 99 98 100 98 96 93 98 99 100 100 100 100
55 57 61 68 72 75 89 90 92 97 99 84 71 70 84 93 99 100 100 99 99 99 99 100 97 99 98 95 100 100 100 100
58 63 66 66 70 83 91 97 98 99 97 93 84 94 98 100 100 100 100 100 100 98 99 98 98 99 100 100 100 99 100 100
60 64 64 69 72 90 97 98 94 99 99 93 97 100 100 100 100 100 100 100 100 100 97 98 98 96 100 100 100 100 99 100
57 64 64 73 82 95 99 98 94 97 94 95 100 100 100 99 99 98 99 99 99 97 95 99 99 96 95 98 100 100 100 100
73 70 70 78 89 99 98 100 97 93 98 100 100 100 100 100 99 99 100 100 98 99 99 99 99 99 97 92 98 98 100 100
74 74 77 81 96 100 100 100 97 100 100 100 100 100 99 100 100 100 99 100 100 99 99 98 99 98 99 100 95 97 100 100

GFSFLT1_925_rhum_222.txt.gz
RH
23 25 27 27 36 56 59 66 90 90 90 95 98 100 100 100 100 99 100 100 100 100 100 100 99 100 100 99 99 100 100 100
27 29 30 29 33 34 48 57 56 73 90 85 99 100 100 100 100 98 99 100 100 100 100 100 100 100 99 100 100 100 100 100
24 26 28 30 34 38 38 42 55 61 68 93 89 88 93 99 100 100 100 98 99 100 100 100 99 100 100 100 100 100 99 100
23 22 24 25 29 32 32 34 40 45 52 64 72 64 51 58 71 86 96 100 100 100 100 100 100 100 100 100 100 99 97 100
22 24 26 26 30 32 35 36 31 31 42 50 60 77 78 75 58 59 66 72 97 100 100 100 100 100 100 100 100 98 96 98
26 26 28 27 29 32 38 42 40 42 47 47 50 61 73 92 92 85 81 56 60 67 99 99 100 100 100 100 100 100 100 95
27 28 29 29 31 35 40 40 38 41 47 53 54 55 63 70 77 84 91 81 73 65 56 74 92 100 99 100 100 100 100 96
30 28 28 30 33 38 42 43 45 45 46 54 56 55 57 60 64 70 71 86 91 72 66 72 79 75 97 100 100 99 100 99
29 27 29 33 37 40 44 49 53 54 56 56 63 59 59 65 68 75 76 67 72 87 92 87 72 72 75 94 98 100 100 100
27 27 32 37 38 42 50 55 58 60 62 63 71 67 72 72 76 82 81 83 90 87 79 76 89 96 91 99 97 98 99 100
28 31 36 38 42 47 50 56 59 63 68 68 75 68 71 76 77 79 81 83 88 91 84 91 87 80 93 98 100 100 100 100
32 32 34 40 44 48 60 65 68 79 84 83 83 78 74 80 86 84 90 96 92 89 92 99 94 91 90 98 98 100 100 100
30 33 36 38 45 50 63 65 73 92 96 96 91 83 81 77 82 84 94 100 95 94 97 98 98 96 96 90 98 92 100 100
32 32 37 43 44 52 60 63 86 96 98 100 92 81 82 93 98 100 99 93 89 95 97 99 99 99 100 99 91 93 99 93
31 32 37 39 44 54 62 80 96 99 99 100 96 92 86 85 90 93 91 95 98 98 98 99 98 98 99 100 100 100 90 99
34 39 38 47 53 64 80 98 100 100 100 99 97 94 94 95 92 93 95 94 89 87 85 86 87 85 81 87 100 100 100 92
40 41 46 60 64 73 98 100 100 100 100 100 93 93 87 87 88 88 91 92 92 93 92 88 84 84 88 91 92 95 100 100
42 41 59 64 70 74 99 100 100 100 100 94 89 92 90 88 86 88 93 98 100 100 100 96 89 87 94 98 99 98 96 100
46 57 66 68 72 78 100 100 100 100 100 98 97 97 99 99 100 99 100 100 100 100 100 100 100 98 98 99 99 99 100 99

GFSFLT1_925_rhum_228.txt.gz
RH
25 27 30 31 33 32 32 34 34 40 41 55 64 66 58 50 67 84 94 98 99 95 88 96 92 100 100 100 99 95 96 98
22 24 26 28 31 33 34 35 36 34 38 39 38 49 60 62 52 41 54 82 91 99 100 93 100 100 99 100 100 100 100 100
20 22 26 27 30 31 32 34 35 35 40 40 42 44 41 52 57 59 60 46 65 88 99 100 98 100 100 100 100 100 100 100
21 22 26 26 29 32 35 38 38 36 39 43 46 50 49 44 47 47 57 74 69 56 79 90 99 100 100 99 99 100 98 100
22 24 26 26 28 31 35 37 37 36 38 45 50 52 53 55 56 55 51 56 67 80 72 60 77 93 100 99 100 100 100 97
27 26 26 25 27 32 34 36 34 36 38 42 47 53 55 56 57 59 58 57 58 63 75 82 66 59 85 98 99 98 99 100
26 26 25 25 28 30 32 33 36 36 39 44 47 49 53 57 59 59 59 57 55 55 64 74 83 80 69 66 82 100 100 100
29 27 25 26 28 29 30 33 36 38 43 45 47 54 59 61 62 62 58 57 64 60 60 68 74 79 82 79 70 78 95 100
27 25 26 26 26 28 32 35 37 38 43 49 56 61 65 68 69 70 71 76 66 60 59 60 67 73 79 89 87 76 66 92
26 26 27 26 27 27 32 35 36 41 46 53 57 64 67 72 77 82 87 84 73 68 67 69 73 78 84 83 82 89 82 80
26 25 24 24 26 27 29 36 44 50 65 70 69 70 72 78 85 94 96 82 76 79 64 78 76 82 90 84 92 82 88 93
26 24 22 22 24 27 32 46 52 70 75 77 86 94 90 89 91 100 96 87 83 78 78 81 81 87 85 94 99 95 88 88
25 22 20 22 25 28 38 47 72 80 84 99 100 99 98 96 86 78 79 80 81 82 82 85 87 90 89 90 93 95 97 99
21 21 22 25 28 43 47 56 84 83 98 100 100 99 98 89 82 81 81 83 83 82 84 84 88 86 87 84 84 87 96 94
19 25 27 28 37 46 55 65 88 90 96 100 99 94 87 89 86 83 79 80 81 80 80 81 80 80 77 77 82 86 88 94
24 31 32 31 43 50 59 70 90 96 98 100 99 98 100 95 80 76 76 77 79 82 84 84 82 80 80 80 80 87 87 93
29 29 30 39 52 58 64 72 86 97 97 99 100 99 97 93 89 82 86 89 90 92 93 94 92 86 83 85 87 95 97 96
36 37 40 47 55 60 66 70 77 92 89 90 92 94 98 97 96 91 85 86 88 88 90 92 95 95 89 84 84 90 94 97
40 44 48 51 53 59 60 64 70 74 72 77 85 90 92 93 92 93 93 90 94 88 88 87 87 90 90 86 88 92 97 97

GFSFLT1_925_rhum_231.txt.gz
RH
31 29 30 33 33 34 35 35 34 40 34 40 36 39 37 36 42 53 54 48 46 65 85 91 90 92 96 99 100 100 99 96
27 27 32 30 31 34 38 37 36 41 38 43 44 49 43 41 45 61 60 54 52 55 51 72 99 99 98 99 100 100 100 98
32 29 29 30 33 34 36 36 36 38 40 44 47 46 50 50 53 48 51 58 68 59 51 54 57 88 100 100 100 100 100 100
34 31 29 31 34 36 36 34 36 37 36 38 44 50 52 54 57 57 56 58 58 60 66 59 62 59 70 93 100 100 98 100
32 32 27 34 35 32 31 31 34 35 39 43 46 54 61 59 58 58 58 59 54 49 49 71 63 70 63 64 79 86 100 98
36 31 28 32 29 29 29 29 34 35 36 38 42 50 53 63 65 67 66 63 65 59 58 66 68 74 76 63 70 70 77 100
32 29 27 29 27 27 31 33 34 36 37 37 44 52 58 59 57 69 72 73 72 72 70 69 70 76 81 82 77 68 65 62
35 36 30 26 26 28 29 34 33 34 41 46 52 56 60 63 66 76 78 78 80 88 79 74 70 69 77 86 86 87 77 66
36 35 32 28 26 26 29 30 35 47 52 55 56 57 70 72 71 73 81 85 85 83 93 82 76 82 85 84 92 93 87 77
33 29 26 26 24 27 30 47 48 54 58 55 62 75 90 94 92 89 83 74 89 100 88 82 68 50 77 84 82 86 90 88
32 28 26 22 25 28 46 52 57 66 60 67 87 93 94 98 99 93 91 99 90 81 82 88 87 86 80 83 91 94 95 94
31 28 21 21 26 39 49 56 64 64 59 68 85 99 95 97 100 99 91 82 82 82 81 81 77 80 80 82 81 81 88 93
32 24 23 28 41 45 56 64 64 65 67 74 89 98 94 92 85 78 77 79 77 80 81 82 82 83 82 83 83 88 96 99
27 27 32 32 46 52 57 65 69 70 68 72 88 97 99 99 89 88 82 78 79 82 82 84 84 83 84 88 86 86 82 79
26 39 37 36 49 56 60 70 75 78 66 72 92 94 100 98 91 92 89 89 91 86 89 89 90 85 87 85 84 82 80 77
35 36 38 49 58 60 63 70 77 75 68 83 95 92 99 98 95 87 85 81 86 88 88 88 94 96 90 91 87 87 91 89
38 39 42 53 59 61 64 69 67 67 75 76 79 84 90 94 95 90 86 85 88 84 83 87 88 89 91 90 87 86 91 95
44 47 52 52 55 57 60 65 64 64 79 70 72 76 84 92 90 89 88 86 88 85 83 85 86 86 86 86 88 90 97 99
46 51 50 48 51 52 55 60 60 61 64 68 72 76 83 85 86 86 84 85 85 85 81 82 82 85 85 87 89 89 94 97